Iwojima, Japan

11:05 PM JST on June 24, 2017 (GMT +0900)
Iwojima Aero

Weather History for RJAW - January, 2013

Change the Weather History Date:

Wednesday, January 23, 2013

  Actual Average Record
Temperature  
Mean Temperature 68 °F -  
Max Temperature 75 °F 69 °F 75 °F (1998)
Min Temperature 62 °F 64 °F 57 °F (1997)
Cooling Degree Days 4    
Growing Degree Days 18 (Base 50)    
Moisture  
Dew Point 57 °F    
Average Humidity 66    
Maximum Humidity 83    
Minimum Humidity 53    
Precipitation  
Precipitation 0.00 in - - ()
Sea Level Pressure  
Sea Level Pressure 29.93 in    
Wind  
Wind Speed 12 mph ()    
Max Wind Speed 20 mph    
Max Gust Speed 26 mph    
Visibility 6.2 miles    
Events Rain    
Averages and records for this station are not official NWS values.
T = Trace of Precipitation, MM = Missing Value Source: Averaged Metar Reports

Daily Weather History Graph

Daily Weather History Graph

Search for Another Location

Airport or City:

Trip Planner

Search our weather history database for the weather conditions in past years. The results will help you decide how hot, cold, wet, or windy it might be!

Date:

Astronomy

Jan. 23, 2013 Rise Set
Actual Time 7:20 AM ChST 6:13 PM ChST
Civil Twilight 6:55 AM ChST 6:37 PM ChST
Nautical Twilight 6:28 AM ChST 7:05 PM ChST
Astronomical Twilight 6:00 AM ChST 7:32 PM ChST
Moon 2:57 PM ChST (1/23) 3:55 AM ChST (1/23)
Length of Visible Light 11h 41m
Length of Day
10h 53m
Waxing Gibbous, 85% of the Moon is Illuminated
Jan 23
Waxing Gibbous
Jan 27
Full
Feb 3
Last Quarter
Feb 10
New
Feb 18
First Quarter

Hourly Weather History & Observations

Time (ChST) Temp. Dew Point Humidity Pressure Visibility Wind Dir Wind Speed Gust Speed Precip Events Conditions
1:00 AM 62.6 °F 50.0 °F 63% 30.04 in 6.2 mi WSW 9.2 mph - N/A   Partly Cloudy
4:00 AM 64.4 °F 53.6 °F 68% 29.98 in 6.2 mi WSW 11.5 mph - N/A   Partly Cloudy
6:00 AM 66.2 °F 53.6 °F 64% 29.98 in 6.2 mi West 15.0 mph - N/A   Scattered Clouds
7:00 AM 68.0 °F 53.6 °F 60% 29.98 in 6.2 mi West 12.7 mph - N/A   Scattered Clouds
8:00 AM 69.8 °F 55.4 °F 60% 29.98 in 6.2 mi West 15.0 mph - N/A   Mostly Cloudy
9:00 AM 69.8 °F 55.4 °F 60% 29.98 in 6.2 mi West 13.8 mph - N/A   Scattered Clouds
10:00 AM 71.6 °F 55.4 °F 57% 29.98 in 6.2 mi West 16.1 mph - N/A   Scattered Clouds
11:00 AM 71.6 °F 55.4 °F 57% 29.98 in 6.2 mi West 16.1 mph - N/A   Mostly Cloudy
12:00 PM 73.4 °F 57.2 °F 57% 29.95 in 6.2 mi West 19.6 mph - N/A   Scattered Clouds
1:00 PM 75.2 °F 57.2 °F 53% 29.92 in 6.2 mi West 19.6 mph - N/A   Scattered Clouds
2:00 PM 73.4 °F 59.0 °F 61% 29.89 in 6.2 mi WNW 18.4 mph - N/A Rain Light Rain Showers
3:00 PM 73.4 °F 57.2 °F 57% 29.89 in 6.2 mi WNW 18.4 mph - N/A   Partly Cloudy
4:00 PM 73.4 °F 57.2 °F 57% 29.89 in 6.2 mi WNW 17.3 mph - N/A   Partly Cloudy
5:00 PM 71.6 °F 57.2 °F 60% 29.89 in 6.2 mi SSW 15.0 mph - N/A   Partly Cloudy
6:00 PM 71.6 °F 59.0 °F 64% 29.89 in 6.2 mi WNW 16.1 mph - N/A   Scattered Clouds
6:12 PM 69.8 °F 59.0 °F 68% 29.89 in 6.2 mi NW 13.8 mph 25.3 mph N/A   Mostly Cloudy
6:26 PM 68.0 °F 59.0 °F 73% 29.89 in 6.2 mi NW 15.0 mph 26.5 mph N/A Rain Light Rain Showers
6:40 PM 66.2 °F 60.8 °F 83% 29.89 in 6.2 mi NW 12.7 mph - N/A Rain Light Rain Showers
7:00 PM 68.0 °F 60.8 °F 78% 29.89 in 6.2 mi WNW 6.9 mph - N/A   Mostly Cloudy
8:00 PM 69.8 °F 60.8 °F 73% 29.92 in 6.2 mi NW 11.5 mph - N/A   Mostly Cloudy
9:00 PM 68.0 °F 59.0 °F 73% 29.92 in 6.2 mi WNW 8.1 mph - N/A   Mostly Cloudy
10:00 PM 69.8 °F 59.0 °F 68% 29.92 in 6.2 mi WNW 11.5 mph - N/A   Mostly Cloudy
10:17 PM 69.8 °F 59.0 °F 68% 29.92 in 5.0 mi NW 10.4 mph - N/A Rain Light Rain Showers
11:00 PM 66.2 °F 60.8 °F 83% 29.92 in 6.2 mi WNW 11.5 mph - N/A   Mostly Cloudy
11:28 PM 66.2 °F 60.8 °F 83% 29.89 in 6.2 mi WNW 6.9 mph - N/A   Mostly Cloudy